Regional Weather Roundup
Issued by NWS

Home | Current Version | Previous Version | Graphics & Text | Print | Product List | Glossary On
Versions: 1 2 3 4 5 6 7 8 9 10 11 12 13 14 15 16 17 18 19 20 21 22 23 24 25 26 27 28 29 30 31 32 33 34 35 36 37 38 39 40 41 42 43 44 45 46 47 48 49 50
000
ASUS45 KABQ 201501
RWRNM
WEATHER ROUNDUP FOR NEW MEXICO
NATIONAL WEATHER SERVICE ALBUQUERQUE NM
900 AM MDT SUN APR 20 2014

NOTE: "FAIR" MEANS FEW OR NO CLOUDS BELOW 12,000 FEET AGL WITH NO
       SIGNIFICANT WEATHER OR OBSTRUCTIONS TO VISION.

      THIS PRODUCT IS RELEASED AS TWO VERSIONS.  ONE VERSION NEAR
      THE TOP OF THE HOUR CONTAINING PRELIMINARY DATA FROM ALBUQUERQUE
      AND OTHER STATIONS.  A FINAL VERSION WITH ADDITIONAL DATA IS
      ISSUED ABOUT 10 MINUTES AFTER THE HOUR.

NMZ501-503-504-510>518-201600-
NORTHWEST PLATEAU/NORTHCENTRAL MOUNTAINS

CITY           SKY/WX    TMP DP  RH WIND       PRES   REMARKS
FARMINGTON     SUNNY     54  35  48 W7        30.13R
LOS ALAMOS     MOSUNNY   48  40  73 CALM      30.19R
SANTA FE       MOSUNNY   50  45  83 SW9       30.15R
TAOS           CLOUDY    46  39  76 S5        30.19S
ANGEL FIRE     PTSUNNY   44  38  78 SW6       30.20S

$$
NMZ402-403-502-505>509-201600-
WESTCENTRAL MOUNTAINS/SOUTHWEST MOUNTAINS

CITY           SKY/WX    TMP DP  RH WIND       PRES   REMARKS
GALLUP         SUNNY     49  39  68 VRB3      30.22R
SILVER CITY    SUNNY     55  41  58 NW9       30.21R

$$
NMZ407-409-411-412-201600-
SOUTHERN DESERTS

CITY           SKY/WX    TMP DP  RH WIND       PRES   REMARKS
DEMING         SUNNY     56  47  71 SW5       30.16R
LAS CRUCES     SUNNY     58  43  56 CALM      30.17S
HOLLOMAN AFB   PTSUNNY   53  50  89 E5        30.15F
T OR C         SUNNY     56  45  66 S6        30.16R

$$
NMZ519>523-201600-
CENTRAL VALLEYS/CENTRAL HIGHLANDS

CITY           SKY/WX    TMP DP  RH WIND       PRES   REMARKS
ALBUQUERQUE    PTSUNNY   54  45  71 S7        30.16R
DOUBLE EAGLE   PTSUNNY   50  43  76 S6        30.17R
MORIARTY ARPT  FAIR      50  42  73 CALM      30.17R
CLINES CORNERS CLOUDY    49  42  77 W17       30.14S
BELEN          FAIR      56  46  70 S5        30.15S
SOCORRO        NOT AVBL

$$
NMZ524>526-539-540-201600-
SOUTHCENTRAL MOUNTAINS

CITY           SKY/WX    TMP DP  RH WIND       PRES   REMARKS
RUIDOSO        NOT AVBL

$$
NMZ527>531-201600-
NORTHEAST HIGHLANDS/NORTHEAST PLAINS

CITY           SKY/WX    TMP DP  RH WIND       PRES   REMARKS
LAS VEGAS      CLOUDY    48  44  86 W7        30.13S
RATON          CLOUDY    51  44  77 W5        30.10R
CLAYTON        CLOUDY    59  46  62 SW7       30.05R

$$
NMZ532>537-201600-
EASTCENTRAL PLAINS

CITY           SKY/WX    TMP DP  RH WIND       PRES   REMARKS
TUCUMCARI      PTSUNNY   61  48  62 SW15      30.03S
CANNON AFB     MOSUNNY   58  49  71 SW16      30.07S
CLOVIS AIRPORT   N/A     57  52  82 SW16      30.10S

$$
NMZ028-029-538-201600-
SOUTHEAST PLAINS

CITY           SKY/WX    TMP DP  RH WIND       PRES   REMARKS
ROSWELL        PTSUNNY   61  47  59 SW7       30.09S
CARLSBAD       MOSUNNY   60  54  80 E7        30.10R
HOBBS          MOSUNNY   57  57 100 S12       30.12S


$$



USA.gov is the U.S. government's official web portal to all federal, state and local government web resources and services.